Weather History for Edinburg, TX

Change the Weather History Date:

Sunday, March 2, 2014

  Actual Average (KMFE) Record (KMFE)
Temperature  
Mean Temperature 70 °F 68 °F  
Max Temperature 89 °F 78 °F 99 °F (1999)
Min Temperature 50 °F 57 °F 32 °F (1917)
Degree Days  
Heating Degree Days 0 2  
Month to date heating degree days 4  
Since 1 July heating degree days 537  
Cooling Degree Days 6 5  
Month to date cooling degree days 10  
Year to date cooling degree days 169  
Growing Degree Days 20 (Base 50)    
Moisture  
Dew Point 67 °F    
Average Humidity 73    
Maximum Humidity 83    
Minimum Humidity 49    
Precipitation  
Precipitation 0.00 in 0.04 in 0.40 in (2003)
Month to date precipitation 0.08  
Year to date precipitation 2.24  
Sea Level Pressure  
Sea Level Pressure 29.88 in    
Wind  
Wind Speed 14 mph (SSE)    
Max Wind Speed 25 mph    
Max Gust Speed 37 mph    
Visibility 8 miles    
Events      
T = Trace of Precipitation, MM = Missing Value Source: NWS Daily Summary

Daily Weather History Graph

Daily Weather History Graph

Search for Another Location

Airport:

Trip Planner

Search our weather history database for the weather conditions in past years. The results will help you decide how hot, cold, wet, or windy it might be!

Date:

Astronomy

Mar. 02, 2014 Rise Set
Actual Time 6:55 AM CST 6:34 PM CST
Civil Twilight 6:31 AM CST 6:57 PM CST
Nautical Twilight 6:05 AM CST 7:24 PM CST
Astronomical Twilight 5:38 AM CST 7:51 PM CST
Moon 7:39 AM CST (3/2) 8:17 PM CST (3/2)
Length of Visible Light 12h 25m
Length of Day
11h 39m
Waxing Crescent, 3% of the Moon is Illuminated
Mar 2
Waxing Crescent
Mar 8
First Quarter
Mar 16
Full
Mar 23
Last Quarter
Mar 30
New

Hourly Weather History & Observations

Time (CST) Temp. Heat Index Dew Point Humidity Pressure Visibility Wind Dir Wind Speed Gust Speed Precip Events Conditions
12:50 AM - - - N/A% 29.91 in 7.0 mi SE 10.4 mph - N/A   Overcast
1:40 AM - - - N/A% 29.91 in 7.0 mi SSE 12.7 mph 18.4 mph N/A   Overcast
2:15 AM 75.2 °F - 69.8 °F 83% 29.90 in 7.0 mi SSE 10.4 mph - N/A   Overcast
2:35 AM 75.2 °F - 69.8 °F 83% 29.89 in 7.0 mi SSE 11.5 mph - N/A   Overcast
2:55 AM 75.2 °F - 69.8 °F 83% 29.88 in 7.0 mi SSE 11.5 mph 17.3 mph N/A   Overcast
3:15 AM 75.2 °F - 69.8 °F 83% 29.88 in 7.0 mi SSE 10.4 mph - N/A   Overcast
3:35 AM 75.2 °F - 69.8 °F 83% 29.88 in 7.0 mi SSE 10.4 mph - N/A   Overcast
4:15 AM 75.2 °F - 69.8 °F 83% 29.87 in 7.0 mi SSE 12.7 mph 18.4 mph N/A   Overcast
4:35 AM 75.2 °F - 69.8 °F 83% 29.87 in 7.0 mi SE 10.4 mph - N/A   Overcast
5:10 AM - - - N/A% 29.86 in 7.0 mi SSE 11.5 mph 19.6 mph N/A   Overcast
5:38 AM 75.2 °F - 69.8 °F 83% 29.87 in 5.0 mi SE 13.8 mph 18.4 mph N/A   Haze
6:35 AM - - - N/A% 29.87 in 5.0 mi SSE 15.0 mph 20.7 mph N/A   Haze
8:17 AM 75.2 °F - 69.8 °F 83% 29.90 in 5.0 mi SSE 19.6 mph 27.6 mph N/A   Haze
8:30 AM - - - N/A% 29.90 in 5.0 mi SSE 18.4 mph 25.3 mph N/A   Haze
9:57 AM 78.8 °F - 69.8 °F 74% 29.90 in 5.0 mi South 18.4 mph 29.9 mph N/A   Haze
10:15 AM 80.6 °F 83.9 °F 69.8 °F 70% 29.90 in 5.0 mi South 23.0 mph 29.9 mph N/A   Haze
10:35 AM 82.4 °F 86.3 °F 69.8 °F 66% 29.90 in 7.0 mi South 25.3 mph 33.4 mph N/A   Mostly Cloudy
11:15 AM 84.2 °F 88.4 °F 69.8 °F 62% 29.88 in 7.0 mi South 24.2 mph 35.7 mph N/A   Mostly Cloudy
11:55 AM 86.0 °F 90.4 °F 69.8 °F 58% 29.86 in 10.0 mi South 25.3 mph 36.8 mph N/A   Mostly Cloudy
12:15 PM 87.8 °F 92.6 °F 69.8 °F 55% 29.85 in 10.0 mi South 21.9 mph 35.7 mph N/A   Mostly Cloudy
12:35 PM 87.8 °F 92.6 °F 69.8 °F 55% 29.84 in 10.0 mi South 25.3 mph 31.1 mph N/A   Mostly Cloudy
1:15 PM - - - N/A% 29.82 in 10.0 mi South 21.9 mph 29.9 mph N/A   Mostly Cloudy
1:57 PM 89.6 °F 93.4 °F 68.0 °F 49% 29.79 in 10.0 mi SSE 21.9 mph 31.1 mph N/A   Scattered Clouds
2:10 PM - - - N/A% 29.78 in - SSE 23.0 mph 28.8 mph N/A   Unknown
3:15 PM - - - N/A% 29.80 in 10.0 mi South 16.1 mph 19.6 mph N/A   Mostly Cloudy
4:17 PM 89.6 °F 94.7 °F 69.8 °F 52% 29.77 in 10.0 mi SE 17.3 mph 24.2 mph N/A   Clear
4:40 PM - - - N/A% 29.78 in 10.0 mi SE 18.4 mph 23.0 mph N/A   Clear
5:17 PM 87.8 °F 92.6 °F 69.8 °F 55% 29.78 in 10.0 mi SE 17.3 mph 21.9 mph N/A   Clear
6:17 PM 82.4 °F 86.3 °F 69.8 °F 66% 29.80 in 10.0 mi SE 16.1 mph - N/A   Clear
7:35 PM 78.8 °F - 69.8 °F 74% 29.84 in 10.0 mi SE 10.4 mph - N/A   Clear
7:55 PM 78.8 °F - 69.8 °F 74% 29.85 in 10.0 mi SE 10.4 mph 17.3 mph N/A   Clear
8:15 PM 77.0 °F - 69.8 °F 78% 29.86 in 10.0 mi SE 10.4 mph - N/A   Clear
8:35 PM 77.0 °F - 69.8 °F 78% 29.88 in 10.0 mi SE 5.8 mph - N/A   Clear
8:55 PM 75.2 °F - 69.8 °F 83% 29.89 in 10.0 mi SSE 10.4 mph - N/A   Clear
9:35 PM 75.2 °F - 69.8 °F 83% 29.91 in 10.0 mi SE 10.4 mph - N/A   Scattered Clouds
9:55 PM 75.2 °F - 69.8 °F 83% 29.92 in 10.0 mi SSE 8.1 mph - N/A   Mostly Cloudy
10:55 PM - - - N/A% 30.00 in 10.0 mi NNE 18.4 mph 25.3 mph N/A   Overcast
11:15 PM 54.3 °F - 46.9 °F 76% 30.02 in 10.0 mi North 17.3 mph 24.2 mph N/A   Overcast
11:35 PM 52.3 °F - 46.6 °F 81% 30.03 in 10.0 mi North 17.3 mph 26.5 mph N/A   Overcast
11:55 PM 50.9 °F - 45.7 °F 82% 30.04 in 10.0 mi NNE 19.6 mph 25.3 mph N/A   Overcast